Regional Weather Roundup
Issued by NWS

Home | Current Version | Previous Version | Graphics & Text | Print | Product List | Glossary On
Versions: 1 2 3 4 5 6 7 8 9 10 11 12 13 14 15 16 17 18 19 20 21 22 23 24 25 26 27
000
ASUS45 KSLC 040210
RWRUT

UTAH REGIONAL WEATHER ROUNDUP
NATIONAL WEATHER SERVICE SALT LAKE CITY UT
700 PM MST SAT DEC 03 2016

UTZ001>011-023>025-040300-

NORTHERN UTAH

CITY           SKY/WX    TMP DP  RH WIND       PRES   REMARKS
BRIGHAM CITY     N/A     33  19  55 CALM      30.27S
HILL AFB       CLOUDY    30  20  66 SE6       30.25S WCI  24
LOGAN          CLOUDY   N/A N/A N/A SW3       30.25F
OGDEN          CLOUDY    32  23  69 S6        30.25S WCI  26
SALT LAKE CITY MOCLDY    34  21  59 SE7       30.27R WCI  28
TOOELE VALLEY  PTCLDY    23  19  86 S3        30.27S
WENDOVER       CLEAR     32  14  47 CALM      30.25S
HEBER CITY     PTCLDY    18  10  73 CALM      30.23R
WEST JORDAN    CLOUDY    31  27  84 CALM      30.27S

$$

UTZ011>015-024>027-040300-

CENTRAL/NORTHEAST UTAH

CITY           SKY/WX    TMP DP  RH WIND       PRES   REMARKS
PROVO AIRPORT  CLOUDY    30  24  78 NW3       30.29R
MOAB/CANYONLAN CLEAR     31  11  43 CALM      30.18R
DELTA          CLEAR     30  18  59 CALM      30.27R
PRICE          CLEAR     30  13  49 NW17G32   30.15F WCI  18
RICHFIELD      CLEAR     25  18  74 CALM      30.26F
ROOSEVELT      CLOUDY    23  14  68 W5        30.20S WCI  17
VERNAL         CLEAR     21  13  71 CALM      30.18R

$$

UTZ013>016-019>022-027-040300-

SOUTHERN UTAH

CITY           SKY/WX    TMP DP  RH WIND       PRES   REMARKS
BRYCE CANYON   CLEAR     23  11  60 NW14      30.17  WCI  11
CEDAR CITY     CLEAR     28  14  55 N3        30.20R
MILFORD        CLEAR     24  13  62 NE6       30.24R WCI  17
ST GEORGE      PTCLDY    43  12  28 CALM      30.18S
HANKSVILLE     CLEAR     28  10  47 CALM      30.20R
KANAB          CLEAR     41  12  30 NW9G15    30.19R
BLANDING       CLEAR     31  11  42 CALM      30.18R

$$

REGIONAL REPORTS     COLORADO/ARIZONA

CITY           SKY/WX    TMP DP  RH WIND       PRES   REMARKS
CRAIG, CO      CLOUDY    26  15  63 CALM      30.16R
GRAND JUNCTION CLEAR     28  17  63 N6        30.17R WCI  22
RIFLE, CO      CLOUDY    23  18  81 S6        30.18R WCI  16
MONTROSE, CO   CLOUDY    26  17  68 S8        30.17R WCI  18
CORTEZ, CO     CLEAR     30  10  43 N10       30.11R WCI  21
COLORADO CITY    N/A     28  19  69 MISG      30.18R
PAGE, AZ       CLEAR     37  10  32 CALM      30.14R
GRAND CANYON   PTCLDY    21  13  71 CALM      30.15R
KINGMAN, AZ    CLEAR     39   9  29 E9        30.12R WCI  33
FLAGSTAFF, AZ  CLEAR     35   5  28 NE17G29   30.07F WCI  25

$$

REGIONAL REPORTS    NEVADA/IDAHO/WYOMING

CITY           SKY/WX    TMP DP  RH WIND       PRES   REMARKS
LAS VEGAS, NV  CLEAR     54   6  14 SW3       30.14R
ELY, NY        CLEAR     27  17  66 W9        30.23S WCI  18
ELKO, NV       CLEAR     29  16  58 CALM      30.26F
POCATELLO, ID  CLOUDY    35  27  72 SW14      30.20R WCI  26
BURLEY, ID     CLEAR     34  26  72 W16       30.18F WCI  24
FORT BRIDGER,  CLOUDY    24  18  77 W17       30.18R WCI  11
EVANSTON, WY   CLOUDY    23  13  65 SW10      30.18S WCI  12
ROCK SPRINGS,  PTCLDY    21  15  78 W21       30.11F WCI   5

$$




USA.gov is the U.S. government's official web portal to all federal, state and local government web resources and services.